UAL678 KMIA-KMCO

Flight info

Callsign UAL678
Flight time 0h 34m
Altitude 22000
Route FLMGO2 WAPOM MUNGI1
Aircraft A320/M-SDE3FGHIRWY/LB1

Departure

Time 2026-04-25 22:14
Airport Miami International Airport (KMIA)

Arrival

Time 2026-04-25 22:48
Airport Orlando International Airport (KMCO)
Time Latitude Longitude Altitude Speed Heading
2026-04-25 21:44 25.79240 -80.28066 22 ft 0 kts 307°
2026-04-25 22:00 25.79225 -80.28039 22 ft 3 kts 284°
2026-04-25 22:00 25.79223 -80.28018 22 ft 3 kts 255°
2026-04-25 22:00 25.79231 -80.28000 22 ft 3 kts 219°
2026-04-25 22:00 25.79246 -80.27990 25 ft 2 kts 192°
2026-04-25 22:01 25.79248 -80.27990 24 ft 0 kts 191°
2026-04-25 22:05 25.79247 -80.27990 23 ft 1 kts 191°
2026-04-25 22:05 25.79225 -80.27995 23 ft 5 kts 192°
2026-04-25 22:05 25.79177 -80.28015 22 ft 9 kts 205°
2026-04-25 22:05 25.79110 -80.28055 21 ft 12 kts 208°
2026-04-25 22:06 25.79051 -80.28124 22 ft 13 kts 258°
2026-04-25 22:06 25.79090 -80.28222 23 ft 15 kts 303°
2026-04-25 22:06 25.79147 -80.28321 21 ft 15 kts 298°
2026-04-25 22:06 25.79192 -80.28399 19 ft 11 kts 320°
2026-04-25 22:07 25.79251 -80.28466 19 ft 14 kts 297°
2026-04-25 22:07 25.79284 -80.28534 19 ft 16 kts 299°
2026-04-25 22:07 25.79357 -80.28678 16 ft 16 kts 300°
2026-04-25 22:07 25.79413 -80.28787 15 ft 15 kts 299°
2026-04-25 22:08 25.79458 -80.28874 17 ft 11 kts 304°
2026-04-25 22:08 25.79518 -80.28895 17 ft 8 kts
2026-04-25 22:08 25.79569 -80.28898 18 ft 8 kts 354°
2026-04-25 22:08 25.79626 -80.28903 19 ft 9 kts 358°
2026-04-25 22:09 25.79689 -80.28904 21 ft 10 kts 359°
2026-04-25 22:09 25.79760 -80.28905 22 ft 11 kts 359°
2026-04-25 22:09 25.79841 -80.28910 22 ft 11 kts 351°
2026-04-25 22:09 25.79888 -80.28916 23 ft 0 kts 356°
2026-04-25 22:10 25.79908 -80.28916 22 ft 5 kts 360°
2026-04-25 22:10 25.79956 -80.28916 21 ft 9 kts
2026-04-25 22:10 25.80009 -80.28954 22 ft 11 kts 281°
2026-04-25 22:11 25.80005 -80.29043 20 ft 10 kts 267°
2026-04-25 22:11 25.80003 -80.29109 21 ft 9 kts 267°
2026-04-25 22:11 25.80000 -80.29168 22 ft 8 kts 267°
2026-04-25 22:11 25.79997 -80.29243 21 ft 12 kts 268°
2026-04-25 22:12 25.79995 -80.29337 18 ft 11 kts 268°
2026-04-25 22:12 25.79993 -80.29393 16 ft 7 kts 268°
2026-04-25 22:12 25.79991 -80.29468 14 ft 12 kts 266°
2026-04-25 22:12 25.79985 -80.29539 13 ft 15 kts 265°
2026-04-25 22:13 25.79980 -80.29694 14 ft 13 kts 268°
2026-04-25 22:13 25.79992 -80.29762 14 ft 10 kts 310°
2026-04-25 22:13 25.80060 -80.29771 14 ft 12 kts 21°
2026-04-25 22:13 25.80090 -80.29684 14 ft 16 kts 89°
2026-04-25 22:14 25.80108 -80.29241 22 ft 103 kts 86°
2026-04-25 22:14 25.80145 -80.28173 176 ft 158 kts 87°
2026-04-25 22:14 25.80218 -80.26947 973 ft 160 kts 87°
2026-04-25 22:14 25.80279 -80.25725 1734 ft 158 kts 89°
2026-04-25 22:15 25.80334 -80.24446 2171 ft 176 kts 90°
2026-04-25 22:15 25.80389 -80.22999 2503 ft 200 kts 89°
2026-04-25 22:15 25.80448 -80.21355 2918 ft 225 kts 89°
2026-04-25 22:16 25.80726 -80.17559 4166 ft 265 kts 71°
2026-04-25 22:16 25.81821 -80.15906 5019 ft 274 kts 35°
2026-04-25 22:16 25.83594 -80.15152 5941 ft 277 kts
2026-04-25 22:16 25.85522 -80.15069 6924 ft 278 kts 356°
2026-04-25 22:17 25.87461 -80.15213 7887 ft 279 kts 353°
2026-04-25 22:17 25.89391 -80.15525 8783 ft 282 kts 342°
2026-04-25 22:17 25.91231 -80.16291 9709 ft 284 kts 336°
2026-04-25 22:17 25.93103 -80.17082 10382 ft 295 kts 339°
2026-04-25 22:18 25.95122 -80.17828 10653 ft 319 kts 341°
2026-04-25 22:18 25.97258 -80.18590 11141 ft 331 kts 338°
2026-04-25 22:18 25.99330 -80.19717 11869 ft 334 kts 326°
2026-04-25 22:18 26.01163 -80.21302 12642 ft 336 kts 318°
2026-04-25 22:19 26.02915 -80.23030 13451 ft 338 kts 317°
2026-04-25 22:19 26.04674 -80.24780 14183 ft 341 kts 317°
2026-04-25 22:19 26.06445 -80.26549 14845 ft 344 kts 317°
2026-04-25 22:19 26.08231 -80.28335 15496 ft 347 kts 317°
2026-04-25 22:20 26.10038 -80.30135 16138 ft 350 kts 317°
2026-04-25 22:20 26.11869 -80.31954 16781 ft 354 kts 317°
2026-04-25 22:20 26.13713 -80.33785 17436 ft 357 kts 317°
2026-04-25 22:20 26.15571 -80.35631 18096 ft 361 kts 317°
2026-04-25 22:21 26.17451 -80.37501 18685 ft 364 kts 317°
2026-04-25 22:21 26.19353 -80.39394 19277 ft 368 kts 317°
2026-04-25 22:21 26.21267 -80.41297 19885 ft 371 kts 318°
2026-04-25 22:21 26.23342 -80.43030 20485 ft 375 kts 328°
2026-04-25 22:22 26.25681 -80.44373 20842 ft 379 kts 333°
2026-04-25 22:22 26.28061 -80.45637 20921 ft 379 kts 333°
2026-04-25 22:22 26.30437 -80.46894 20934 ft 379 kts 333°
2026-04-25 22:22 26.32818 -80.48152 20940 ft 378 kts 333°
2026-04-25 22:23 26.35202 -80.49414 20931 ft 378 kts 333°
2026-04-25 22:23 26.37575 -80.50675 20940 ft 378 kts 333°
2026-04-25 22:23 26.39952 -80.51938 20944 ft 378 kts 333°
2026-04-25 22:23 26.42293 -80.53185 20934 ft 378 kts 333°
2026-04-25 22:24 26.44664 -80.54450 20929 ft 377 kts 333°
2026-04-25 22:24 26.47065 -80.55730 20930 ft 377 kts 333°
2026-04-25 22:24 26.49478 -80.56799 20938 ft 379 kts 341°
2026-04-25 22:24 26.52009 -80.57608 20938 ft 379 kts 342°
2026-04-25 22:25 26.54547 -80.58412 20938 ft 379 kts 342°
2026-04-25 22:25 26.57090 -80.59217 20947 ft 379 kts 342°
2026-04-25 22:25 26.59623 -80.60018 20938 ft 378 kts 342°
2026-04-25 22:25 26.62155 -80.60818 20941 ft 378 kts 342°
2026-04-25 22:26 26.64688 -80.61618 20928 ft 378 kts 342°
2026-04-25 22:26 26.67220 -80.62422 20935 ft 378 kts 342°
2026-04-25 22:26 26.69752 -80.63230 20925 ft 378 kts 342°
2026-04-25 22:26 26.72295 -80.64042 20937 ft 379 kts 342°
2026-04-25 22:27 26.74828 -80.64850 20942 ft 379 kts 342°
2026-04-25 22:27 26.77359 -80.65657 20941 ft 379 kts 342°
2026-04-25 22:27 26.79886 -80.66465 20942 ft 379 kts 342°
2026-04-25 22:27 26.82420 -80.67274 20937 ft 379 kts 342°
2026-04-25 22:28 26.84955 -80.68081 20938 ft 379 kts 342°
2026-04-25 22:28 26.87490 -80.68888 20949 ft 379 kts 342°
2026-04-25 22:28 26.89993 -80.69696 20950 ft 378 kts 341°
2026-04-25 22:28 26.92508 -80.70560 20966 ft 378 kts 340°
2026-04-25 22:29 26.95011 -80.71469 20959 ft 378 kts 340°
2026-04-25 22:29 26.97512 -80.72410 20953 ft 378 kts 339°
2026-04-25 22:29 27.00003 -80.73364 20947 ft 378 kts 339°
2026-04-25 22:30 27.04172 -80.74966 20938 ft 378 kts 339°
2026-04-25 22:30 27.06636 -80.75907 20935 ft 378 kts 339°
2026-04-25 22:30 27.09128 -80.76853 20929 ft 378 kts 339°
2026-04-25 22:30 27.10808 -80.77490 20914 ft 378 kts 339°
2026-04-25 22:31 27.14114 -80.78738 20929 ft 378 kts 339°
2026-04-25 22:31 27.16601 -80.79678 20926 ft 378 kts 339°
2026-04-25 22:31 27.19103 -80.80626 20921 ft 378 kts 339°
2026-04-25 22:31 27.21595 -80.81573 20925 ft 378 kts 339°
2026-04-25 22:32 27.24086 -80.82519 20927 ft 379 kts 339°
2026-04-25 22:32 27.26582 -80.83468 20922 ft 379 kts 339°
2026-04-25 22:32 27.29071 -80.84419 20922 ft 379 kts 339°
2026-04-25 22:32 27.31572 -80.85373 20916 ft 379 kts 339°
2026-04-25 22:33 27.34088 -80.86268 20924 ft 379 kts 341°
2026-04-25 22:33 27.36632 -80.87061 20918 ft 380 kts 343°
2026-04-25 22:33 27.39196 -80.87797 20926 ft 380 kts 344°
2026-04-25 22:33 27.41763 -80.88514 20919 ft 380 kts 344°
2026-04-25 22:34 27.44328 -80.89235 20938 ft 380 kts 343°
2026-04-25 22:34 27.46891 -80.89970 20933 ft 380 kts 343°
2026-04-25 22:34 27.49420 -80.90709 20938 ft 380 kts 343°
2026-04-25 22:34 27.51976 -80.91466 20928 ft 379 kts 343°
2026-04-25 22:35 27.54526 -80.92231 20948 ft 379 kts 342°
2026-04-25 22:35 27.57066 -80.92996 20946 ft 378 kts 342°
2026-04-25 22:35 27.59615 -80.93763 20936 ft 378 kts 343°
2026-04-25 22:35 27.62151 -80.94524 20945 ft 378 kts 343°
2026-04-25 22:36 27.64695 -80.95284 20927 ft 376 kts 343°
2026-04-25 22:36 27.67180 -80.96021 20878 ft 361 kts 343°
2026-04-25 22:36 27.69567 -80.96728 20506 ft 348 kts 343°
2026-04-25 22:36 27.71882 -80.97414 19740 ft 342 kts 342°
2026-04-25 22:37 27.74170 -80.98096 18981 ft 337 kts 342°
2026-04-25 22:37 27.76423 -80.98770 18247 ft 333 kts 342°
2026-04-25 22:37 27.78647 -80.99436 17362 ft 329 kts 342°
2026-04-25 22:37 27.80855 -81.00101 16476 ft 327 kts 342°
2026-04-25 22:38 27.83045 -81.00762 15664 ft 324 kts 342°
2026-04-25 22:38 27.85215 -81.01414 14885 ft 320 kts 342°
2026-04-25 22:38 27.87357 -81.02054 14130 ft 317 kts 342°
2026-04-25 22:38 27.89475 -81.02687 13354 ft 313 kts 342°
2026-04-25 22:39 27.91573 -81.03316 12524 ft 311 kts 342°
2026-04-25 22:39 27.93653 -81.03967 11701 ft 309 kts 339°
2026-04-25 22:39 27.95659 -81.04808 10917 ft 307 kts 337°
2026-04-25 22:39 27.97657 -81.05653 10145 ft 306 kts 338°
2026-04-25 22:40 27.99606 -81.06479 9666 ft 295 kts 338°
2026-04-25 22:40 28.01495 -81.07279 9180 ft 286 kts 337°
2026-04-25 22:40 28.03345 -81.08062 8553 ft 283 kts 338°
2026-04-25 22:40 28.05185 -81.08843 7908 ft 281 kts 337°
2026-04-25 22:41 28.07005 -81.09617 7275 ft 279 kts 337°
2026-04-25 22:41 28.08823 -81.10390 6668 ft 278 kts 336°
2026-04-25 22:41 28.10619 -81.11170 6058 ft 275 kts 336°
2026-04-25 22:41 28.12396 -81.11953 5441 ft 274 kts 336°
2026-04-25 22:42 28.14169 -81.12737 4912 ft 273 kts 336°
2026-04-25 22:42 28.15928 -81.13523 4363 ft 270 kts 334°
2026-04-25 22:42 28.17410 -81.14746 3751 ft 263 kts 307°
2026-04-25 22:42 28.18486 -81.16412 3175 ft 262 kts 301°
2026-04-25 22:43 28.19494 -81.18140 2997 ft 266 kts 301°
2026-04-25 22:43 28.20500 -81.19912 2981 ft 268 kts 301°
2026-04-25 22:43 28.21500 -81.21694 2986 ft 267 kts 301°
2026-04-25 22:43 28.22464 -81.23395 2983 ft 244 kts 301°
2026-04-25 22:44 28.23341 -81.24940 2995 ft 224 kts 301°
2026-04-25 22:44 28.24150 -81.26392 2988 ft 211 kts 300°
2026-04-25 22:44 28.24957 -81.27710 2986 ft 204 kts 311°
2026-04-25 22:44 28.26050 -81.28724 2991 ft 200 kts 328°
2026-04-25 22:45 28.27330 -81.29295 2974 ft 200 kts 347°
2026-04-25 22:45 28.28705 -81.29427 2696 ft 196 kts 356°
2026-04-25 22:45 28.30076 -81.29449 2240 ft 195 kts 357°
2026-04-25 22:45 28.31406 -81.29460 1944 ft 185 kts 356°
2026-04-25 22:46 28.32637 -81.29471 1704 ft 168 kts 355°
2026-04-25 22:46 28.33763 -81.29483 1474 ft 155 kts 355°
2026-04-25 22:46 28.34816 -81.29494 1293 ft 149 kts 355°
2026-04-25 22:46 28.35822 -81.29505 1102 ft 143 kts 354°
2026-04-25 22:47 28.36812 -81.29516 934 ft 142 kts 355°
2026-04-25 22:47 28.37794 -81.29527 752 ft 140 kts 356°
2026-04-25 22:47 28.38761 -81.29537 558 ft 138 kts 358°
2026-04-25 22:47 28.39725 -81.29547 363 ft 137 kts 358°
2026-04-25 22:48 28.40677 -81.29562 174 ft 135 kts 358°
2026-04-25 22:48 28.41544 -81.29562 101 ft 106 kts 357°
2026-04-25 22:48 28.42134 -81.29578 95 ft 68 kts 359°
2026-04-25 22:48 28.42521 -81.29577 97 ft 47 kts 360°
2026-04-25 22:49 28.42758 -81.29583 97 ft 22 kts 354°
2026-04-25 22:49 28.42882 -81.29646 97 ft 13 kts 310°
2026-04-25 22:49 28.42902 -81.29736 95 ft 14 kts 279°
2026-04-25 22:49 28.42913 -81.29817 95 ft 10 kts 277°
2026-04-25 22:50 28.42890 -81.29877 96 ft 10 kts 176°
2026-04-25 22:50 28.42812 -81.29883 96 ft 13 kts 183°
2026-04-25 22:50 28.42713 -81.29881 95 ft 16 kts 178°
2026-04-25 22:50 28.42607 -81.29885 96 ft 15 kts 185°
2026-04-25 22:51 28.42581 -81.29885 95 ft 2 kts 175°
2026-04-25 22:51 28.42561 -81.29894 95 ft 5 kts 209°
2026-04-25 22:51 28.42529 -81.29926 95 ft 8 kts 223°
2026-04-25 22:51 28.42516 -81.29964 95 ft 6 kts 287°
2026-04-25 22:52 28.42529 -81.29979 95 ft 2 kts 321°
2026-04-25 22:52 28.42543 -81.29995 94 ft 0 kts 314°